Airfield :
LOGIN :

Register | Disclaimer

   EN    FR    IT 

 










Legend :    VFR   Marginal VFR   IFR   Intensive IFR   Very Intensive IFR
Visi :
Ceiling :
>= 8 km
>= 3000ft
5 to 8 km
1000 to 3000 ft
1500m to 5 km
500 to 1000 ft
800 to 1500m
200 to 500 ft
< 800m
< 200 ft
Symbols :   Thunderstorms  Fog  Heavy snow  Heavy precipitations  Wind > 20 kt
SIGMETs :     Misc.  Thunderstorms  Icing  Turbulence  Mountain Waves  Volcanic Ashes







- Airport Elevation : 3368 ft


LSGC - Les Eplatures

CURRENT METAR :
  • 221820Z AUTO VRB02KT CAVOK 10/07 Q1024

EXPIRED METARs :
  • 221750Z AUTO VRB02KT 9999 NCD 12/07 Q1023
  • 221720Z 00000KT CAVOK 12/07 Q1023
  • 221650Z VRB02KT CAVOK 14/07 Q1023
  • 221620Z VRB02KT CAVOK 14/08 Q1023
  • 221550Z VRB03KT CAVOK 15/07 Q1023

TAF TAF LSGC
Valid from the 22 at 15:00 until the 23 at 00:00 UTC


221425Z 2215/2224 VRB03KT CAVOK
No reported NOTAMs for that airfield.



MET'MAP, your aeronautical weather chart ! - Copyright ORBIFLY December 2007 - Disclaimer

ORBIFLY MET'MAP TEAM :

Programming & Development : Alexandra Zaïnal
Concept & Development : Baudouin d'Aumeries
Co-Development & Prog : Marc-Olivier Méhu
Technical & hardware support : Manuel Goepfert

Contact : metmap@orbifly.com




SOURCES & CREDITS :

   NOAA